sat.trackr.live / text

‹ back to catalog

STARLINK-4336

NORAD 53051 · 2022-077J

PAYLOAD ACTIVE UNKNOWN

§ Identity

Operator
Country
US
Launch date
2022-07-11
Launch site
AFWTR
Launch vehicle
Mass (kg)
RCS (m²)

Purposes: comms

External: N2YO · Heavens-Above · Gunter

§ Orbital elements

Epoch: 2026-09-19T22:01:17.857056Z

Period
93.91 min
Inclination
97.2851°
Eccentricity
0.0001458
Mean motion
15.33435480 rev/d
Perigee alt
464.6 km
Apogee alt
466.6 km
Semi-major
6,843.7 km
B*
8.3622e-6
RAAN
77.7867°
Arg perigee
88.5726°
Mean anomaly
271.5684°
Rev number
23,020

§ Raw data

STARLINK-43361 53051U 22077J   26262.91756779  .00000195  00000+0  83622-5 0  99912 53051  97.2851  77.7867 0001458  88.5726 271.5684 15.33435480230200

JSON: /api/v1/satellites/53051 · /tle

For live sub-satellite position, see the globe view (requires WebGL).

§ Visibility from observer

Set your observer location to see the next 7 days of passes ≥ 10°. The values pass through the URL so the page stays shareable.

No JS? Fill the form by hand. The geolocation button needs JavaScript.